Fremont, NE

12:43 PM CDT on July 22, 2017 (GMT -0500)
Fremont Municipal

Weather History for KFET - October, 2010

Change the Weather History Date:

Wednesday, October 20, 2010

  Actual Average Record
Temperature  
Mean Temperature 56 °F -  
Max Temperature 76 °F 64 °F 85 °F (1953)
Min Temperature 36 °F 37 °F 17 °F (1960)
Degree Days  
Heating Degree Days 9    
Growing Degree Days 6 (Base 50)    
Moisture  
Dew Point 32 °F    
Average Humidity 50    
Maximum Humidity 84    
Minimum Humidity 17    
Precipitation  
Precipitation 0.00 in - - ()
Sea Level Pressure  
Sea Level Pressure 29.95 in    
Wind  
Wind Speed 6 mph (WNW)    
Max Wind Speed 21 mph    
Max Gust Speed 28 mph    
Visibility 10 miles    
Events      
Averages and records for this station are not official NWS values.
T = Trace of Precipitation, MM = Missing Value Source: NWS Daily Summary

Daily Weather History Graph

Daily Weather History Graph

Search for Another Location

Airport or City:

Trip Planner

Search our weather history database for the weather conditions in past years. The results will help you decide how hot, cold, wet, or windy it might be!

Date:

Astronomy

Oct. 20, 2010 Rise Set
Actual Time 7:43 AM CDT 6:37 PM CDT
Civil Twilight 7:15 AM CDT 7:05 PM CDT
Nautical Twilight 6:43 AM CDT 7:37 PM CDT
Astronomical Twilight 6:11 AM CDT 8:09 PM CDT
Moon 5:12 PM CDT (10/20) 5:25 AM CDT (10/20)
Length of Visible Light 11h 49m
Length of Day
10h 53m
Waxing Gibbous, 95% of the Moon is Illuminated
Oct 20
Waxing Gibbous
Oct 22
Full
Oct 30
Last Quarter
Nov 5
New
Nov 13
First Quarter

Hourly Weather History & Observations

Time (CDT) Temp. Windchill Dew Point Humidity Pressure Visibility Wind Dir Wind Speed Gust Speed Precip Events Conditions
12:10 AM 47.7 °F - 36.1 °F 64% 29.95 in 10.0 mi West 3.5 mph - N/A   Clear
12:30 AM 48.4 °F - 36.3 °F 63% 29.95 in 10.0 mi Calm Calm - N/A   Clear
12:50 AM 50.2 °F - 36.5 °F 59% 29.94 in 7.0 mi Calm Calm - N/A   Clear
1:10 AM 47.1 °F - 36.3 °F 66% 29.94 in 10.0 mi West 3.5 mph - N/A   Clear
1:30 AM 47.3 °F - 36.1 °F 65% 29.94 in 10.0 mi Calm Calm - N/A   Clear
1:50 AM 45.9 °F 44.6 °F 35.6 °F 67% 29.94 in 10.0 mi WNW 3.5 mph - N/A   Clear
2:10 AM 42.1 °F 39.2 °F 34.7 °F 75% 29.95 in 10.0 mi West 4.6 mph - N/A   Clear
2:30 AM 42.1 °F 38.4 °F 35.4 °F 77% 29.95 in 10.0 mi WNW 5.8 mph - N/A   Clear
2:50 AM 40.3 °F 38.2 °F 34.3 °F 79% 29.95 in 10.0 mi WNW 3.5 mph - N/A   Clear
3:10 AM 39.4 °F - 34.0 °F 81% 29.96 in 10.0 mi Calm Calm - N/A   Clear
3:30 AM 39.6 °F 37.4 °F 33.8 °F 80% 29.96 in 10.0 mi WNW 3.5 mph - N/A   Clear
3:50 AM 39.2 °F 33.0 °F 34.2 °F 82% 29.95 in 10.0 mi West 9.2 mph - N/A   Clear
4:10 AM 40.3 °F 35.5 °F 34.2 °F 79% 29.94 in 10.0 mi West 6.9 mph - N/A   Clear
4:30 AM 41.0 °F 35.8 °F 34.0 °F 76% 29.94 in 10.0 mi West 8.1 mph - N/A   Clear
4:50 AM 39.4 °F 35.2 °F 33.6 °F 80% 29.96 in 10.0 mi WNW 5.8 mph - N/A   Clear
5:10 AM 39.2 °F 37.0 °F 32.9 °F 78% 29.96 in 10.0 mi WNW 3.5 mph - N/A   Clear
5:30 AM 39.4 °F 36.1 °F 32.9 °F 78% 29.94 in 10.0 mi WNW 4.6 mph - N/A   Clear
5:50 AM 38.5 °F 34.1 °F 32.7 °F 80% 29.96 in 10.0 mi WNW 5.8 mph - N/A   Clear
6:10 AM 38.7 °F 34.3 °F 32.4 °F 78% 29.96 in 10.0 mi West 5.8 mph - N/A   Clear
6:30 AM 39.6 °F 36.3 °F 32.5 °F 76% 29.96 in 10.0 mi WNW 4.6 mph - N/A   Clear
6:50 AM 39.6 °F 36.3 °F 32.2 °F 75% 29.96 in 10.0 mi NW 4.6 mph - N/A   Clear
7:10 AM 36.3 °F 31.6 °F 32.0 °F 84% 29.96 in 10.0 mi WNW 5.8 mph - N/A   Clear
7:30 AM 37.4 °F 32.1 °F 32.2 °F 81% 29.97 in 10.0 mi West 6.9 mph - N/A   Clear
7:50 AM 37.2 °F 33.6 °F 32.2 °F 82% 29.97 in 10.0 mi WNW 4.6 mph - N/A   Clear
8:10 AM 38.5 °F 34.1 °F 32.9 °F 80% 29.97 in 10.0 mi West 5.8 mph - N/A   Clear
8:30 AM 41.0 °F 38.0 °F 34.9 °F 79% 29.97 in 10.0 mi WNW 4.6 mph - N/A   Clear
8:50 AM 45.0 °F 41.8 °F 34.9 °F 68% 29.98 in 10.0 mi West 5.8 mph - N/A   Clear
9:10 AM 46.6 °F - 35.2 °F 65% 29.99 in 10.0 mi West 8.1 mph - N/A   Clear
9:30 AM 48.7 °F - 34.3 °F 58% 29.99 in 10.0 mi West 10.4 mph - N/A   Clear
9:50 AM 51.6 °F - 35.2 °F 54% 29.99 in 10.0 mi West 8.1 mph - N/A   Clear
10:10 AM 54.0 °F - 34.7 °F 48% 29.99 in 10.0 mi West 9.2 mph - N/A   Clear
10:30 AM 56.5 °F - 34.2 °F 43% 29.99 in 7.0 mi West 6.9 mph - N/A   Clear
10:50 AM 58.1 °F - 34.3 °F 41% 29.99 in 10.0 mi West 6.9 mph - N/A   Clear
11:10 AM 60.4 °F - 33.8 °F 37% 29.99 in 10.0 mi WSW 9.2 mph - N/A   Clear
11:30 AM 61.9 °F - 32.9 °F 34% 29.99 in 10.0 mi WSW 8.1 mph - N/A   Clear
11:50 AM 63.9 °F - 32.9 °F 31% 29.99 in 10.0 mi West 6.9 mph - N/A   Clear
12:10 PM 66.7 °F - 31.3 °F 27% 29.98 in 10.0 mi WSW 9.2 mph - N/A   Clear
12:30 PM 67.8 °F - 29.5 °F 24% 29.98 in 10.0 mi WSW 12.7 mph - N/A   Clear
12:50 PM 69.4 °F - 29.5 °F 23% 29.97 in 10.0 mi WSW 12.7 mph - N/A   Clear
1:10 PM 70.7 °F - 30.0 °F 22% 29.96 in 7.0 mi WSW 10.4 mph 19.6 mph N/A   Clear
1:30 PM 71.8 °F - 30.0 °F 21% 29.95 in 10.0 mi West 13.8 mph 21.9 mph N/A   Clear
1:50 PM 72.3 °F - 29.1 °F 20% 29.93 in 10.0 mi West 13.8 mph - N/A   Clear
2:10 PM 73.6 °F - 28.4 °F 19% 29.93 in 10.0 mi West 12.7 mph 18.4 mph N/A   Clear
2:30 PM 74.7 °F - 26.8 °F 17% 29.93 in 7.0 mi WNW 19.6 mph 27.6 mph N/A   Clear
2:50 PM 75.4 °F - 27.3 °F 17% 29.93 in 10.0 mi NW 18.4 mph 25.3 mph N/A   Clear
3:10 PM 75.2 °F - 27.1 °F 17% 29.92 in 10.0 mi WNW 15.0 mph 21.9 mph N/A   Clear
3:30 PM 75.6 °F - 27.1 °F 17% 29.92 in 10.0 mi WNW 20.7 mph 25.3 mph N/A   Clear
3:50 PM 76.1 °F - 27.7 °F 17% 29.91 in 10.0 mi WNW 15.0 mph - N/A   Clear
4:10 PM 75.6 °F - 27.5 °F 17% 29.91 in 10.0 mi NW 13.8 mph 21.9 mph N/A   Clear
4:30 PM 75.6 °F - 29.3 °F 18% 29.91 in 10.0 mi NW 16.1 mph 23.0 mph N/A   Clear
4:50 PM 75.2 °F - 28.9 °F 18% 29.90 in 7.0 mi NW 13.8 mph 21.9 mph N/A   Clear
5:10 PM 74.5 °F - 28.2 °F 18% 29.90 in 4.0 mi WNW 16.1 mph - N/A   Haze
5:30 PM 73.6 °F - 29.5 °F 20% 29.90 in 10.0 mi WNW 10.4 mph - N/A   Clear
5:50 PM 72.1 °F - 30.0 °F 21% 29.91 in 10.0 mi NW 8.1 mph - N/A   Clear
6:10 PM 69.1 °F - 31.5 °F 25% 29.91 in 10.0 mi NW 5.8 mph - N/A   Clear
6:30 PM 67.3 °F - 30.9 °F 26% 29.92 in 7.0 mi NNW 5.8 mph - N/A   Clear
6:50 PM 65.7 °F - 30.6 °F 27% 29.92 in 7.0 mi NNW 4.6 mph - N/A   Clear
7:10 PM 61.5 °F - 30.9 °F 32% 29.93 in 7.0 mi NW 3.5 mph - N/A   Clear
7:30 PM 58.3 °F - 31.1 °F 36% 29.94 in 10.0 mi Calm Calm - N/A   Clear
7:50 PM 57.2 °F - 32.0 °F 38% 29.94 in 7.0 mi West 3.5 mph - N/A   Clear
8:10 PM 56.8 °F - 32.0 °F 39% 29.96 in 10.0 mi West 4.6 mph - N/A   Clear
8:30 PM 57.0 °F - 32.0 °F 39% 29.96 in 10.0 mi Calm Calm - N/A   Clear
8:50 PM 56.3 °F - 32.2 °F 40% 29.97 in 7.0 mi Calm Calm - N/A   Clear
9:10 PM 54.9 °F - 33.3 °F 44% 29.97 in 10.0 mi Calm Calm - N/A   Clear
9:30 PM 53.8 °F - 34.3 °F 48% 29.97 in 10.0 mi Calm Calm - N/A   Clear
9:50 PM 55.0 °F - 36.0 °F 49% 29.98 in 10.0 mi Calm Calm - N/A   Clear
10:10 PM 55.0 °F - 35.4 °F 48% 29.98 in 10.0 mi Calm Calm - N/A   Clear
10:30 PM 52.7 °F - 34.5 °F 50% 29.99 in 10.0 mi WNW 5.8 mph - N/A   Clear
10:50 PM 48.6 °F - 34.3 °F 58% 30.00 in 10.0 mi NW 4.6 mph - N/A   Clear
11:10 PM 48.0 °F - 33.8 °F 58% 30.01 in 10.0 mi WNW 3.5 mph - N/A   Clear
11:30 PM 46.9 °F - 33.6 °F 60% 30.01 in 10.0 mi West 4.6 mph - N/A   Clear
11:50 PM 45.9 °F 43.6 °F 34.0 °F 63% 30.01 in 10.0 mi West 4.6 mph - N/A   Clear